Chehalis, WA
on Sunday, November 11, 2012

Sunday
Previous Day Next Day
Daily Summary
 ActualAverage (KOLM)Record (KOLM)
Temperature
Mean Temperature °F 44°F  
Max Temperature 46°F 51°F 64°F (1990)
Min Temperature 32°F 37°F 18°F (1985)
Degree Days
Heating Degree Days 26 21  
Month to date heating degree days 215  
Since 1 July heating degree days 1009  
Cooling Degree Days 0 0  
Month to date cooling degree days 0  
Year to date cooling degree days 106  
Moisture
Dew Point 38°F   
Average Humidity 88    
Maximum Humidity 100    
Minimum Humidity 75    
Precipitation
Precipitation 0.34 in 0.29 in 1.81 in (1958)
Month to date precipitation 2.87  
Year to date precipitation 36.78  
Wind
Wind Speed 7 mph   
Max Wind Speed 16 mph   
Max Gust Speed 23 mph   
Visibility 8 miles   
Events Rain   

Key: T is trace of precipitation, MM is missing value
Source: NWS Daily Summary
Time(PST)TemperatureDew PointHumidity Pressure Visibility Wind DirectionWind SpeedGust SpeedPrecipitationEvents Conditions
12:15 AM 32.0°F 32.0°F 100% 30.24 in 7.0 miles SW 3.5 mph - N/A   Unknown
12:35 AM 32.0°F 32.0°F 100% 30.24 in 7.0 miles SW 3.5 mph - N/A   Unknown
1:15 AM 32.0°F 32.0°F 100% 30.24 in 5.0 miles SW 3.5 mph - N/A   Mist
1:35 AM 32.0°F 30.2°F 93% 30.25 in 5.0 miles SW 3.5 mph - N/A   Mist
1:55 AM 32.0°F 32.0°F 100% 30.25 in 9.0 miles SSW 3.5 mph - N/A   Unknown
2:15 AM 32.0°F 32.0°F 100% 30.25 in 10.0 miles SW 4.6 mph - N/A   Unknown
2:35 AM 32.0°F 32.0°F 100% 30.24 in 7.0 miles SW 4.6 mph - N/A   Unknown
2:55 AM 32.0°F 32.0°F 100% 30.24 in 10.0 miles SSW 4.6 mph - N/A   Unknown
3:15 AM 33.8°F 32.0°F 93% 30.23 in 10.0 miles SSW 4.6 mph - N/A   Unknown
3:35 AM 33.8°F 32.0°F 93% 30.23 in 10.0 miles SSW 3.5 mph - N/A   Unknown
3:55 AM 35.6°F 32.0°F 87% 30.23 in 10.0 miles SW 4.6 mph - N/A   Unknown
4:15 AM 35.6°F 32.0°F 87% 30.23 in 10.0 miles South 4.6 mph - N/A   Unknown
4:35 AM 35.6°F 32.0°F 87% 30.23 in 10.0 miles South 4.6 mph - N/A   Unknown
4:55 AM 37.4°F 32.0°F 81% 30.23 in 10.0 miles South 4.6 mph - N/A   Unknown
5:35 AM 37.4°F 32.0°F 81% 30.22 in 10.0 miles SSW 5.8 mph - N/A   Unknown
5:55 AM 37.4°F 32.0°F 81% 30.22 in 10.0 miles SW 5.8 mph - N/A   Unknown
6:15 AM 37.4°F 32.0°F 81% 30.22 in 10.0 miles SSW 6.9 mph - N/A   Unknown
6:35 AM 37.4°F 32.0°F 81% 30.22 in 10.0 miles South 5.8 mph - N/A   Unknown
6:55 AM 37.4°F 32.0°F 81% 30.22 in 10.0 miles South 5.8 mph - N/A   Unknown
7:15 AM 37.4°F 32.0°F 81% 30.22 in 10.0 miles SSW 5.8 mph - N/A   Unknown
7:35 AM 37.4°F 32.0°F 81% 30.22 in 10.0 miles SSW 6.9 mph - N/A   Unknown
7:55 AM 39.2°F 32.0°F 75% 30.22 in 10.0 miles SSW 6.9 mph - N/A   Unknown
8:15 AM 39.2°F 33.8°F 81% 30.22 in 10.0 miles South 9.2 mph - N/A   Unknown
8:35 AM 41.0°F 35.6°F 81% 30.23 in 10.0 miles South 8.1 mph - N/A   Unknown
8:55 AM 41.0°F 35.6°F 81% 30.23 in 10.0 miles South 6.9 mph - N/A   Unknown
9:15 AM 41.0°F 35.6°F 81% 30.23 in 9.0 miles South 6.9 mph - N/A Rain Light Rain
10:15 AM 42.8°F 37.4°F 81% 30.23 in 10.0 miles South 5.8 mph - N/A   Unknown
10:35 AM 42.8°F 37.4°F 81% 30.23 in 5.0 miles South 10.4 mph 17.3 mph N/A Rain Light Rain
10:55 AM 42.8°F 39.2°F 87% 30.24 in 8.0 miles South 5.8 mph - N/A Rain Light Rain
11:15 AM 42.8°F 39.2°F 87% 30.23 in 4.0 miles SSW 8.1 mph - N/A Rain Light Rain
11:35 AM 42.8°F 39.2°F 87% 30.22 in 5.0 miles SSW 6.9 mph - 0.02 in Rain Light Rain
11:55 AM 42.8°F 41.0°F 93% 30.22 in 5.0 miles South 10.4 mph - 0.02 in Rain Light Rain
12:15 PM 44.6°F 41.0°F 87% 30.21 in 5.0 miles South 9.2 mph - 0.01 in Rain Light Rain
12:35 PM 44.6°F 41.0°F 87% 30.21 in 4.0 miles South 9.2 mph - 0.02 in Rain Light Rain
12:55 PM 44.6°F 41.0°F 87% 30.20 in 5.0 miles South 10.4 mph - 0.05 in Rain Light Rain
1:15 PM 44.6°F 41.0°F 87% 30.20 in 8.0 miles South 9.2 mph 16.1 mph 0.01 in Rain Light Rain
1:35 PM 44.6°F 41.0°F 87% 30.19 in 6.0 miles South 10.4 mph - 0.04 in Rain Light Rain
1:55 PM 44.6°F 41.0°F 87% 30.19 in 6.0 miles South 12.7 mph 18.4 mph 0.06 in Rain Light Rain
2:15 PM 44.6°F 41.0°F 87% 30.18 in 5.0 miles South 9.2 mph - 0.01 in Rain Light Rain
2:35 PM 44.6°F 41.0°F 87% 30.18 in 4.0 miles South 10.4 mph - 0.03 in Rain Light Rain
2:55 PM 44.6°F 41.0°F 87% 30.17 in 4.0 miles South 10.4 mph - 0.06 in Rain Light Rain
3:15 PM 44.6°F 41.0°F 87% 30.16 in 9.0 miles South 10.4 mph 19.6 mph 0.01 in Rain Light Rain
3:35 PM 44.6°F 41.0°F 87% 30.16 in 5.0 miles South 11.5 mph 18.4 mph 0.02 in Rain Light Rain
4:15 PM 44.6°F 41.0°F 87% 30.15 in 7.0 miles South 10.4 mph 18.4 mph 0.01 in Rain Light Rain
4:35 PM 44.6°F 41.0°F 87% 30.14 in 10.0 miles South 11.5 mph 17.3 mph 0.01 in   Unknown
4:55 PM 44.6°F 41.0°F 87% 30.13 in 10.0 miles South 10.4 mph 18.4 mph 0.01 in   Unknown
5:15 PM 44.6°F 41.0°F 87% 30.13 in 10.0 miles South 11.5 mph 18.4 mph N/A Rain Light Rain
5:35 PM 44.6°F 41.0°F 87% 30.13 in 8.0 miles South 11.5 mph 19.6 mph 0.01 in Rain Light Rain
5:55 PM 44.6°F 41.0°F 87% 30.13 in 7.0 miles South 15.0 mph - 0.02 in   Unknown
6:15 PM 44.6°F 41.0°F 87% 30.12 in 5.0 miles South 13.8 mph 19.6 mph N/A   Mist
6:35 PM 44.6°F 42.8°F 93% 30.11 in 7.0 miles South 15.0 mph 19.6 mph 0.02 in Rain Light Rain
7:15 PM 44.6°F 42.8°F 93% 30.12 in 5.0 miles South 12.7 mph 20.7 mph 0.01 in Rain Light Rain
7:35 PM 46.4°F 42.8°F 87% 30.11 in 8.0 miles South 13.8 mph 19.6 mph 0.03 in Rain Light Rain
7:55 PM 46.4°F 42.8°F 87% 30.11 in 10.0 miles South 15.0 mph 21.9 mph 0.03 in Rain Light Rain
8:15 PM 46.4°F 42.8°F 87% 30.11 in 9.0 miles South 11.5 mph 20.7 mph N/A Rain Light Rain
8:35 PM 46.4°F 44.6°F 93% 30.11 in 9.0 miles South 11.5 mph 17.3 mph 0.01 in Rain Light Rain
9:15 PM 46.4°F 44.6°F 93% 30.11 in 5.0 miles South 10.4 mph - 0.01 in Rain Light Rain
9:35 PM 46.4°F 44.6°F 93% 30.11 in 7.0 miles South 10.4 mph 16.1 mph 0.02 in   Unknown
9:55 PM 46.4°F 44.6°F 93% 30.10 in 7.0 miles South 11.5 mph 16.1 mph 0.02 in Rain Light Rain
10:15 PM 46.4°F 44.6°F 93% 30.10 in 8.0 miles South 12.7 mph - N/A   Unknown
10:35 PM 46.4°F 44.6°F 93% 30.10 in 9.0 miles South 13.8 mph 19.6 mph 0.01 in Rain Light Rain
10:55 PM 46.4°F 44.6°F 93% 30.10 in 9.0 miles South 16.1 mph 20.7 mph 0.01 in   Unknown
11:15 PM 46.4°F 44.6°F 93% 30.10 in 8.0 miles South 16.1 mph 23.0 mph N/A   Unknown
11:35 PM 46.4°F 44.6°F 93% 30.11 in 6.0 miles South 16.1 mph 23.0 mph 0.01 in Rain Light Rain
Moon Phase
Nov. 11 Nov. 13 Nov. 20 Nov. 28 Dec. 06
Sunrise:07:09 AM (PST) Moon Rise:04:22 AM (PST)11/11
Sunset:04:42 PM (PST) Moon Set:03:14 PM (PST)11/11

Copyright © 2014 The Weather Underground, Inc.